Location: Street
(51.1247°N, 2.7429°W)
Time: 10:42:16
(UTC+00:00)

Tiros 1 - Pass Details

Date: 04 December 2020
Orbit: 630 x 663 km, 48.4° (Epoch: 21 January)

Event Time Altitude Azimuth Distance (km) Brightness Sun altitude
Rises 15:36:00 0° 256° (WSW) 2,993 11.9 2.8°
Reaches altitude 10° 15:38:22 10° 253° (WSW) 2,081 11.2 2.5°
Maximum altitude 15:43:07 62° 173° (S) 747 7.8 1.9°
Drops below altitude 10° 15:47:51 10° 94° (E) 2,074 9.3 1.3°
Sets 15:50:12 0° 91° (E) 2,982 10.1 1.1°
